Location: Arboyeti
(42.1122°N, 44.6017°E)
Time: 17:18:36
(UTC+00:00)

ARIANE 5 R/B - Pass Details

Date: 19 April 2021
Orbit: 620 x 656 km, 98.1° (Epoch: 02 May)

Event Time Altitude Azimuth Distance (km) Brightness Sun altitude
Exits shadow 17:17:19 18° 78° (ENE) 1,558 4.2 -16.0°
Maximum altitude 17:18:03 19° 65° (ENE) 1,525 4.3 -16.1°
Drops below altitude 10° 17:21:06 10° 21° (NNE) 2,023 5.3 -16.6°
Sets 17:23:49 0° 3° (N) 2,929 6.5 -17.0°
